Weather in Uryum

Russia / Republic of Tatarstan     54°46′21″N   48°45′29″E
В апреле 2022 года жителям России запретили посещать сайт meteo.paraplan.net по решению Генеральной прокуратуры. Аудитория сайта уменьшилась в 10 раз. Владельцы сайта не видят смысла в поддержке погодного сервера в таких условиях. Сайт будет закрыт в октябре.
temp.,
°C
wind,
m/s
gust,
m/s
humid.,
%
clouds,
%
prec.,
mm/h
press.,
hPa
HPBL,
m
29 september, thu
thu2900:00+9se71492100 4.4 1009601
03:00+10se61391100 4.4 1009566
06:00+10se51095100 0.9 1008482
09:00+10se5996100 4.5 1008411
12:00+11se4898100 5.6 1009386
15:00+11se2697100 7.2 1010325
18:00+11ese2497100 0.3 1012176
21:00+11ene2296100 0.4 1014130
30 september, fri
fri3000:00+10ne2495100 0.1 1016193
03:00+9ne249493 0.1 1018230
06:00+9ene359496 0.0 1020243
09:00+10ene2387100 0.0 1021281
12:00+12ene2278100 0.0 1022498
15:00+13ne237778 0.0 1023484
18:00+12e3586100 0.0 1024165
21:00+10ese239167 0.0 102481
1 october, sat
sat100:00+10se2389100 0.0 102470
03:00+10se2489100 0.0 1024134
06:00+10se3587100 0.0 1024200
09:00+12sse457674 0.0 1024371
12:00+14sse456889 0.0 1023528
15:00+15sse456454 0.0 1021636
18:00+13se4876100 0.0 1021256
21:00+13sse41174100 0.0 1019344
2 october, sun
sun200:00+13sse41178100 0.0 1018295
03:00+12sse6128345 0.8 1017394
06:00+12s51288100 0.3 1016368
09:00+13s61283100 0.3 1015394
12:00+17s61274100 0.0 1014589
15:00+18s51170100 0.0 1013782
18:00+15s3994100 4.5 1012208
21:00+14ssw259598 7.3 1012127
3 october, mon
mon300:00+14sw2297100 1.3 101251
03:00+13w1195100 1.3 101310
06:00+14s4986100 0.7 1014231
09:00+14s4883100 0.9 1015263
12:00+17sse5106912 0.0 1016522
15:00+20s6105550 0.0 1016838
18:00+16sse61456100 0.0 1018355
21:00+15sse61555100 0.0 1019447